FW7374 Weather Reports


time (UTC)temp
F
wind
direction
speed
knots
gust
knots
rain 1hr
in
rain 24hr
in
rain mn
in
humidity
%
barometer
mb
20260507150522 56 20 0.9 3.5 0.00 0.02 0.01 58 1013.3
20260507143522 55 21 1.7 5.2 0.00 0.04 0.01 62 1013.9
20260507130522 54 5 1.7 7.0 0.00 0.12 0.01 61 1014.3
20260507120509 54 346 0.9 4.3 0.00 0.18 0.01 65 1014.1
20260507110510 54 355 0.9 4.3 0.00 0.23 0.01 69 1013.6
20260507100504 54 33 0.0 3.5 0.00 0.23 0.01 81 1013.0
20260507090500 55 23 0.9 3.5 0.00 0.23 0.01 81 1012.7
20260507083452 55 355 0.9 4.3 0.00 0.23 0.01 80 1012.2
20260507070432 55 9 0.9 4.3 0.00 0.23 0.01 84 1012.1
20260507060429 56 21 1.7 7.0 0.00 0.23 0.01 81 1012.3
20260507050427 57 5 1.7 3.5 0.01 0.23 0.01 85 1012.3
20260507040431 59 67 0.9 4.3 0.01 0.22 0.00 84 1012.0
20260507030424 61 355 1.7 7.8 0.00 0.21 0.21 79 1011.7
20260507020423 63 5 1.7 8.7 0.00 0.21 0.21 80 1011.1
20260507010424 66 343 1.7 5.2 0.00 0.21 0.21 82 1010.7
20260507000427 68 24 0.9 3.5 0.00 0.21 0.21 84 1010.4
20260506230424 70 295 0.0 2.6 0.00 0.21 0.21 81 1009.2
20260506220423 70 186 0.0 3.5 0.00 0.21 0.21 80 1008.9
20260506210424 71 221 0.9 7.8 0.00 0.21 0.21 78 1008.5
20260506200423 70 183 1.7 7.0 0.00 0.21 0.21 79 1008.5
20260506190424 70 186 2.6 7.8 0.00 0.21 0.21 79 1008.9
20260506180420 68 185 1.7 7.8 0.00 0.21 0.21 81 1009.1
20260506170417 66 205 1.7 7.0 0.00 0.21 0.21 85 1009.3